Location: Unspecified
(34.4950°S, 58.5160°W)
Time: 15:34:18
(UTC+00:00)

Cosmos 1655 Rocket - Pass Details

Date: 01 July 2022
Orbit: 971 x 1005 km, 83.0° (Epoch: 11 August)

Event Time Altitude Azimuth Distance (km) Brightness Sun altitude
Rises 23:10:31 0° 0° (N) 3,707 7.2 -27.2°
Reaches altitude 10° 23:13:01 10° 1° (N) 2,768 6.4 -27.7°
Enters shadow 23:18:58 74° 48° (NE) 1,052 3.9 -28.9°
